EW1958 Weather Reports


time (UTC)temp
C
wind
direction
speed
KPH
gust
KPH
rain 1hr
cm
rain 24hr
cm
rain mn
cm
humidity
%
barometer
mb
20260505035539 18 200 0.0 1.6 0.00 0.00 0.00 60 1012.7
20260505035042 18 200 0.0 1.6 0.00 0.00 0.00 61 1012.6
20260505034540 19 200 0.0 1.6 0.00 0.00 0.00 60 1012.6
20260505034102 20 200 0.0 0.0 0.00 0.00 0.00 58 1012.5
20260505034038 19 200 0.0 0.0 0.00 0.00 0.00 59 1012.5
20260505033820 20 200 0.0 0.0 0.00 0.00 0.00 58 1012.5
20260505032818 20 200 0.0 0.0 0.00 0.00 0.00 59 1012.4
20260505032318 20 200 0.0 0.0 0.00 0.00 0.00 58 1012.3
20260505031818 20 200 0.0 3.2 0.00 0.00 0.00 57 1012.3
20260505031318 20 200 0.0 3.2 0.00 0.00 0.00 58 1012.3
20260505030818 21 200 0.0 0.0 0.00 0.00 0.00 58 1012.2
20260505030555 21 200 0.0 0.0 0.00 0.00 0.00 56 1012.1
20260505030318 21 200 0.0 0.0 0.00 0.00 0.00 56 1012.1
20260505025818 21 200 0.0 0.0 0.00 0.00 0.00 57 1012.1
20260505025318 21 200 0.0 0.0 0.00 0.00 0.00 58 1012.0
20260505025052 21 200 0.0 0.0 0.00 0.00 0.00 58 1012.0
20260505024817 21 200 0.0 0.0 0.00 0.00 0.00 58 1012.0
20260505024314 21 200 0.0 0.0 0.00 0.00 0.00 57 1011.8
20260505023813 22 200 0.0 0.0 0.00 0.00 0.00 59 1011.8
20260505023548 22 200 0.0 0.0 0.00 0.00 0.00 57 1011.8
20260505023312 22 200 0.0 0.0 0.00 0.00 0.00 57 1011.8
20260505022812 22 200 0.0 0.0 0.00 0.00 0.00 55 1011.7
20260505022311 22 200 0.0 3.2 0.00 0.00 0.00 55 1011.7
20260505021808 22 200 0.0 3.2 0.00 0.00 0.00 54 1011.8
20260505021306 22 200 0.0 3.2 0.00 0.00 0.00 54 1011.8
20260505020806 22 200 0.0 3.2 0.00 0.00 0.00 54 1011.7
20260505020316 22 200 0.0 1.6 0.00 0.00 0.00 52 1011.8
20260505015805 22 200 0.0 3.2 0.00 0.00 0.00 51 1011.7
20260505015304 22 200 0.0 3.2 0.00 0.00 0.00 50 1011.7
20260505015013 23 200 0.0 1.6 0.00 0.00 0.00 49 1011.7
20260505014541 23 200 0.0 3.2 0.00 0.00 0.00 51 1011.7
20260505014302 23 200 0.0 3.2 0.00 0.00 0.00 51 1011.7
20260505013802 23 200 0.0 3.2 0.00 0.00 0.00 51 1011.7
20260505013301 23 200 0.0 3.2 0.00 0.00 0.00 50 1011.7
20260505012758 23 200 0.0 3.2 0.00 0.00 0.00 49 1011.7
20260505012256 23 200 0.0 3.2 0.00 0.00 0.00 50 1011.7
20260505011809 23 200 0.0 3.2 0.00 0.00 0.00 46 1011.8
20260505011759 23 200 0.0 3.2 0.00 0.00 0.00 48 1011.7
20260505011504 23 200 0.0 3.2 0.00 0.00 0.00 46 1011.8
20260505010752 23 200 0.0 3.2 0.00 0.00 0.00 49 1011.8
20260505010250 23 200 0.0 3.2 0.00 0.00 0.00 48 1011.8
20260505005751 23 200 0.0 3.2 0.00 0.00 0.00 46 1011.8
20260505005248 23 200 0.0 3.2 0.00 0.00 0.00 45 1011.8
20260505004746 24 200 0.0 3.2 0.00 0.00 0.00 46 1011.8
20260505004527 24 200 0.0 3.2 0.00 0.00 0.00 45 1011.8
20260505004247 24 200 0.0 3.2 0.00 0.00 0.00 45 1011.8
20260505004020 24 200 0.0 3.2 0.00 0.00 0.00 45 1011.9
20260505003744 24 200 0.0 3.2 0.00 0.00 0.00 45 1011.9
20260505003242 24 200 0.0 3.2 0.00 0.00 0.00 44 1011.8
20260505002741 24 200 0.0 3.2 0.00 0.00 0.00 45 1011.9
20260505002240 24 200 0.0 3.2 0.00 0.00 0.00 45 1011.9
20260505002020 25 200 0.0 3.2 0.00 0.00 0.00 45 1011.9
20260505001741 25 200 0.0 3.2 0.00 0.00 0.00 45 1011.9
20260505001235 25 200 0.0 3.2 0.00 0.00 0.00 42 1011.9
20260505000735 25 200 0.0 3.2 0.00 0.00 0.00 42 1011.9
20260505000234 25 200 0.0 3.2 0.00 0.00 0.00 42 1012.0
20260505000008 25 160 0.0 3.2 0.00 0.00 0.00 40 1012.0
20260504235730 25 160 0.0 3.2 0.00 0.00 0.00 40 1012.0
20260504235229 25 101 0.0 3.2 0.00 0.00 0.00 41 1012.0
20260504234730 25 140 0.0 3.2 0.00 0.00 0.00 41 1012.1
20260504234231 25 140 0.0 3.2 0.00 0.00 0.00 42 1012.2
20260504234004 25 140 0.0 3.2 0.00 0.00 0.00 40 1012.1
20260504233728 25 140 0.0 3.2 0.00 0.00 0.00 40 1012.1
20260504233230 25 140 0.0 3.2 0.00 0.00 0.00 41 1012.1
20260504232743 25 140 0.0 3.2 0.00 0.00 0.00 40 1012.2
20260504232230 25 140 0.0 3.2 0.00 0.00 0.00 40 1012.2
20260504231728 25 89 0.0 3.2 0.00 0.00 0.00 41 1012.2
20260504231444 25 89 0.0 3.2 0.00 0.00 0.00 41 1012.2
20260504230729 25 89 0.0 4.8 0.00 0.00 0.00 40 1012.1
20260504230230 26 70 0.0 4.8 0.00 0.00 0.00 42 1012.3
20260504225730 26 102 0.0 3.2 0.00 0.00 0.00 39 1012.2
20260504225227 26 102 0.0 3.2 0.00 0.00 0.00 38 1012.3
20260504224720 26 118 0.0 3.2 0.00 0.00 0.00 39 1012.3
20260504224510 26 96 0.0 3.2 0.00 0.00 0.00 39 1012.3
20260504224500 26 315 0.0 3.2 0.00 0.00 0.00 40 1012.3
20260504224437 26 96 0.0 3.2 0.00 0.00 0.00 39 1012.3
20260504223220 26 315 0.0 3.2 0.00 0.00 0.00 43 1012.4
20260504222957 26 11 0.0 3.2 0.00 0.00 0.00 38 1012.4
20260504222717 26 11 0.0 3.2 0.00 0.00 0.00 38 1012.4
20260504222216 26 273 0.0 3.2 0.00 0.00 0.00 40 1012.5
20260504221715 26 273 0.0 4.8 0.00 0.00 0.00 39 1012.6
20260504221216 26 92 0.0 4.8 0.00 0.00 0.00 40 1012.7
20260504220954 26 92 0.0 4.8 0.00 0.00 0.00 40 1012.7
20260504220715 26 92 0.0 4.8 0.00 0.00 0.00 40 1012.7
20260504220215 26 99 0.0 4.8 0.00 0.00 0.00 40 1012.7
20260504215715 26 287 0.0 3.2 0.00 0.00 0.00 37 1012.7
20260504215215 26 287 0.0 3.2 0.00 0.00 0.00 39 1012.9
20260504214711 26 100 0.0 3.2 0.00 0.00 0.00 39 1012.8
20260504214422 27 288 0.0 3.2 0.00 0.00 0.00 40 1012.8
20260504213950 27 108 0.0 3.2 0.00 0.00 0.00 37 1012.8
20260504213712 27 108 0.0 3.2 0.00 0.00 0.00 37 1012.8
20260504213215 27 108 0.0 3.2 0.00 0.00 0.00 35 1012.8
20260504213011 27 108 0.0 3.2 0.00 0.00 0.00 35 1012.8
20260504213006 27 286 0.0 3.2 0.00 0.00 0.00 34 1012.9
20260504213002 27 286 1.6 3.2 0.00 0.00 0.00 34 1012.9
20260504212726 27 108 0.0 3.2 0.00 0.00 0.00 35 1012.8
20260504212216 27 286 0.0 3.2 0.00 0.00 0.00 34 1012.9
20260504211211 27 286 0.0 3.2 0.00 0.00 0.00 36 1012.8
20260504210946 28 286 0.0 3.2 0.00 0.00 0.00 35 1012.9
20260504210713 28 286 0.0 3.2 0.00 0.00 0.00 35 1012.9
20260504210224 28 278 0.0 3.2 0.00 0.00 0.00 32 1013.0
20260504210214 28 286 1.6 3.2 0.00 0.00 0.00 36 1012.9
20260504205213 28 278 0.0 3.2 0.00 0.00 0.00 36 1012.9
20260504204712 28 278 0.0 3.2 0.00 0.00 0.00 33 1013.0
20260504204212 28 136 0.0 3.2 0.00 0.00 0.00 34 1013.1
20260504203711 28 297 0.0 3.2 0.00 0.00 0.00 35 1013.1
20260504203211 28 297 0.0 3.2 0.00 0.00 0.00 39 1013.0
20260504202711 27 302 0.0 3.2 0.00 0.00 0.00 38 1013.1
20260504202446 27 302 0.0 3.2 0.00 0.00 0.00 39 1013.1
20260504202213 27 302 0.0 3.2 0.00 0.00 0.00 39 1013.1
20260504201923 27 302 0.0 3.2 0.00 0.00 0.00 39 1013.0
20260504201217 27 105 0.0 3.2 0.00 0.00 0.00 42 1013.0
20260504200924 27 105 0.0 3.2 0.00 0.00 0.00 38 1013.1
20260504200212 27 165 0.0 3.2 0.00 0.00 0.00 39 1013.1
20260504195711 27 257 0.0 3.2 0.00 0.00 0.00 41 1013.1
20260504195212 27 257 0.0 3.2 0.00 0.00 0.00 41 1013.1
20260504194709 27 288 0.0 3.2 0.00 0.00 0.00 40 1013.1
20260504194209 28 288 0.0 3.2 0.00 0.00 0.00 39 1013.0
20260504193708 27 160 0.0 3.2 0.00 0.00 0.00 41 1013.1
20260504193207 27 120 0.0 3.2 0.00 0.00 0.00 39 1013.1
20260504192707 27 120 0.0 3.2 0.00 0.00 0.00 38 1013.1
20260504192206 27 91 0.0 3.2 0.00 0.00 0.00 40 1013.1
20260504191702 27 40 0.0 3.2 0.00 0.00 0.00 40 1013.3
20260504191156 27 110 0.0 3.2 0.00 0.00 0.00 42 1013.3
20260504190657 27 110 0.0 3.2 0.00 0.00 0.00 45 1013.3
20260504190157 27 110 0.0 3.2 0.00 0.00 0.00 43 1013.3
20260504185910 27 130 0.0 3.2 0.00 0.00 0.00 44 1013.4
20260504185155 27 270 0.0 4.8 0.00 0.00 0.00 43 1013.6
20260504184929 27 270 0.0 4.8 0.00 0.00 0.00 43 1013.6
20260504184655 27 270 0.0 4.8 0.00 0.00 0.00 43 1013.6
20260504184152 26 306 0.0 3.2 0.00 0.00 0.00 45 1013.6
20260504183650 26 306 0.0 3.2 0.00 0.00 0.00 44 1013.6
20260504183400 26 306 0.0 3.2 0.00 0.00 0.00 45 1013.6
20260504182647 26 306 0.0 3.2 0.00 0.00 0.00 43 1013.5
20260504182144 26 306 0.0 3.2 0.00 0.00 0.00 43 1013.6
20260504181642 26 306 0.0 3.2 0.00 0.00 0.00 43 1013.5
20260504181139 25 306 0.0 3.2 0.00 0.00 0.00 44 1013.6
20260504180637 25 306 0.0 3.2 0.00 0.00 0.00 48 1013.5
20260504180135 25 306 0.0 3.2 0.00 0.00 0.00 46 1013.5
20260504175645 25 306 0.0 3.2 0.00 0.00 0.00 46 1013.5
20260504175636 25 306 0.0 3.2 0.00 0.00 0.00 48 1013.5
20260504175343 25 306 0.0 3.2 0.00 0.00 0.00 46 1013.5
20260504174631 24 306 0.0 3.2 0.00 0.00 0.00 48 1013.5
20260504174132 24 306 0.0 3.2 0.00 0.00 0.00 48 1013.5
20260504173630 23 302 0.0 3.2 0.00 0.00 0.00 49 1013.5
20260504173129 23 300 0.0 3.2 0.00 0.00 0.00 50 1013.4
20260504172629 23 271 0.0 3.2 0.00 0.00 0.00 54 1013.4
20260504172407 22 34 0.0 3.2 0.00 0.00 0.00 51 1013.5
20260504172126 22 34 0.0 3.2 0.00 0.00 0.00 51 1013.5
20260504171635 22 110 0.0 3.2 0.00 0.00 0.00 53 1013.5
20260504171625 22 60 0.0 3.2 0.00 0.00 0.00 54 1013.5
20260504170626 22 87 0.0 3.2 0.00 0.00 0.00 53 1013.6
20260504170125 21 87 0.0 3.2 0.00 0.00 0.00 56 1013.6
20260504160118 15 188 0.0 3.2 0.00 0.00 0.00 77 1013.5
20260504151111 12 267 0.0 0.0 0.00 0.00 0.00 95 1013.1
20260504150609 12 267 0.0 0.0 0.00 0.00 0.00 95 1013.1
20260504150110 11 267 0.0 0.0 0.00 0.00 0.00 95 1012.9
20260504141101 10 0.0 0.0 0.00 0.00 0.00 94 1012.7
20260504140837 10 0.0 0.0 0.00 0.00 0.00 94 1012.7
20260504140601 10 0.0 0.0 0.00 0.00 0.00 94 1012.7
20260504130515 10 0.0 0.0 0.00 0.00 0.00 92 1012.3
20260504120231 10 0.0 0.0 0.00 0.00 0.00 92 1012.2
20260504110416 11 0.0 0.0 0.00 0.00 0.00 90 1012.1
20260504110406 11 0.0 0.0 0.00 0.00 0.00 90 1012.2
20260504110118 11 0.0 0.0 0.00 0.00 0.00 90 1012.1
20260504100330 11 267 0.0 0.0 0.00 0.00 0.00 89 1012.1
20260504081325 12 267 0.0 0.0 0.00 0.00 0.00 85 1012.1
20260504081312 12 267 0.0 0.0 0.00 0.00 0.00 85 1012.2
20260504080810 12 267 0.0 0.0 0.00 0.00 0.00 85 1012.2
20260504080308 12 267 0.0 0.0 0.00 0.00 0.00 85 1012.1
20260504070301 13 267 0.0 0.0 0.00 0.00 0.00 80 1012.4
20260504050254 16 267 0.0 0.0 0.00 0.00 0.00 72 1012.3
20260504045754 16 267 0.0 0.0 0.00 0.00 0.00 71 1012.3
20260504045533 16 267 0.0 0.0 0.00 0.00 0.00 72 1012.3
20260504045254 16 267 0.0 0.0 0.00 0.00 0.00 72 1012.3
20260504044750 16 267 0.0 0.0 0.00 0.00 0.00 70 1012.3
20260504044529 17 267 0.0 0.0 0.00 0.00 0.00 72 1012.2
20260504044250 17 267 0.0 0.0 0.00 0.00 0.00 72 1012.2
20260504044002 17 267 0.0 0.0 0.00 0.00 0.00 70 1012.3
20260504043245 17 267 0.0 0.0 0.00 0.00 0.00 69 1012.3
20260504042740 17 267 0.0 0.0 0.00 0.00 0.00 69 1012.3
20260504042240 17 267 0.0 0.0 0.00 0.00 0.00 68 1012.3
20260504041740 17 267 0.0 0.0 0.00 0.00 0.00 67 1012.3
20260504041238 18 267 0.0 0.0 0.00 0.00 0.00 67 1012.3
20260504041009 18 267 0.0 0.0 0.00 0.00 0.00 69 1012.3
20260504040734 18 267 0.0 0.0 0.00 0.00 0.00 69 1012.3
20260504040508 18 267 0.0 0.0 0.00 0.00 0.00 67 1012.2
20260504040232 18 267 0.0 0.0 0.00 0.00 0.00 67 1012.2
20260504035945 18 267 0.0 0.0 0.00 0.00 0.00 65 1012.1